Regional Weather Roundup
Issued by NWS

Home | Current Version | Previous Version | Graphics & Text | Print | Product List | Glossary On
Versions: 1 2 3 4 5 6 7 8 9 10 11 12 13 14 15 16 17 18 19 20 21 22 23 24 25 26 27 28 29 30 31 32 33 34 35 36 37 38 39 40 41 42 43 44 45 46 47 48 49 50
000
ASUS43 KLMK 250802
RWRKY
KENTUCKY REGIONAL WEATHER ROUNDUP
NATIONAL WEATHER SERVICE LOUISVILLE KY
400 AM EDT TUE JUL 25 2017

NOTE "FAIR" INDICATES FEW OR NO CLOUDS BELOW 12,000 FEET
WITH NO SIGNIFICANT WEATHER AND/OR OBSTRUCTIONS TO VISIBILITY.

KYZ001>023-026-027-061>063-070>075-250900-
WESTERN AND SOUTH CENTRAL KENTUCKY

CITY           SKY/WX    TMP DP  RH WIND       PRES   REMARKS
PADUCAH        PTCLDY    76  72  87 CALM      30.01S
HENDERSON      CLEAR     74  69  85 NE7       30.05
OWENSBORO      CLEAR     75  68  78 E7        30.04S
HOPKINSVILLE   CLEAR     74  74  98 CALM      30.03S
BOWLING GREEN  CLEAR     76  72  87 CALM      30.03S
GLASGOW        NOT AVBL
$$

KYZ024-025-028>034-038-045-046-053-250900-
NORTH CENTRAL KENTUCKY

CITY           SKY/WX    TMP DP  RH WIND       PRES   REMARKS
LOUISVILLE/SDF PTCLDY    73  64  73 NE8       30.07R
LOUISVILLE/LOU CLEAR     72  65  78 NE10      30.08S
FORT KNOX      PTCLDY    71  65  82 NE6       30.06R
$$

KYZ035>037-039>044-047>052-055>060-089>105-250900-
NORTHEAST KENTUCKY

CITY           SKY/WX    TMP DP  RH WIND       PRES   REMARKS
LEXINGTON      PTCLDY    68  62  81 NE9       30.09R
COVINGTON      CLEAR     66  60  81 E8        30.11S
FRANKFORT      PTCLDY    70  61  73 NE7       30.08R
$$

KYZ054-064>069-076>088-106>120-250900-
SOUTHEAST KENTUCKY

CITY           SKY/WX    TMP DP  RH WIND       PRES   REMARKS
JACKSON        CLEAR     67  65  93 CALM      30.09R
LONDON         CLEAR     69  67  93 CALM      30.07S
SOMERSET       NOT AVBL
MIDDLESBORO    CLEAR     68  68 100 CALM      30.09R
MONTICELLO     PTSUNNY   71  71 100 N10       30.08R FOG
$$





USA.gov is the U.S. government's official web portal to all federal, state and local government web resources and services.